Regional Weather Roundup
Issued by NWS

Home | Current Version | Previous Version | Graphics & Text | Print | Product List | Glossary On
Versions: 1 2 3 4 5 6 7 8 9 10 11 12 13 14 15 16 17 18 19 20 21 22 23 24 25 26 27 28 29 30 31 32 33 34 35 36 37 38 39 40 41 42 43 44 45 46 47 48 49 50
000
ASUS45 KPSR 310400
RWRAZ

ARIZONA HOURLY REGIONAL WEATHER ROUNDUP
NATIONAL WEATHER SERVICE PHOENIX AZ
900 PM MST THU JUL 30 2015

NOTE: FAIR INDICATES FEW OR NO CLOUDS BELOW 12,000 FEET WITH NO
SIGNIFICANT WEATHER AND/OR OBSTRUCTIONS TO VISIBILITY.

AZZ001>003-036-310500-
NORTHWEST ARIZONA

CITY           SKY/WX    TMP DP  RH WIND       PRES   REMARKS
KINGMAN        CLOUDY    81  52  36 SE8       30.15R
$$

AZZ004>008-015-016-018-310500-
NORTH CENTRAL ARIZONA

CITY           SKY/WX    TMP DP  RH WIND       PRES   REMARKS
GRAND CANYON   CLOUDY    71  47  42 E3        30.38R
WILLIAMS       CLOUDY    68  52  56 E7        30.45R
PRESCOTT       PTCLDY    73  56  54 CALM      30.25R
FLAGSTAFF      NOT AVBL
PAYSON         PTCLDY    77  57  50 NE6       30.27R HAZE
PAGE           MOCLDY    85  51  31 S7        30.15R
$$

AZZ009>014-017-310500-
NORTHEAST ARIZONA

CITY           SKY/WX    TMP DP  RH WIND       PRES   REMARKS
WINSLOW        NOT AVBL
SAINT JOHNS    CLEAR     69  57  65 SE7       30.32R
SHOW LOW       PTCLDY    64  55  72 CALM      30.38R
$$

AZZ023-310500-
GREATER PHOENIX AREA

CITY           SKY/WX    TMP DP  RH WIND       PRES   REMARKS
PHOENIX        MOCLDY   102  56  21 NW5       29.89R HX 101
LUKE AFB       PTCLDY    99  59  26 NW9       29.90R
DEER VALLEY    PTCLDY    97  58  27 NW12      29.92R
SCOTTSDALE     PTCLDY    98  56  24 CALM      29.94R
CHANDLER       MOCLDY    99  57  25 CALM      29.91R
$$

AZZ027-028-310500-
SOUTHWEST MARICOPA COUNTY AND PINAL COUNTY

CITY           SKY/WX    TMP DP  RH WIND       PRES   REMARKS
CASA GRANDE    PTCLDY    95  54  24 CALM      29.93R
$$

AZZ503-504-507>509-310500-
SOUTHEAST ARIZONA

CITY           SKY/WX    TMP DP  RH WIND       PRES   REMARKS
TUCSON         MOCLDY    91  60  35 W5        30.05R
DAVIS-MONTHAN  MOCLDY    89  61  38 W1        30.04R
SIERRA VISTA   CLOUDY    76  56  51 SE13      30.25R
SAFFORD        PTCLDY    88  58  36 S6        30.08R
$$

AZZ020-021-025-026-031-310500-
SOUTHWEST ARIZONA

CITY           SKY/WX    TMP DP  RH WIND       PRES   REMARKS
YUMA           MOCLDY    99  67  35 W6        29.88R HX 103
$$

CAZ031-033-041-043-047-048-061-310500-
SOUTHERN CALIFORNIA

CITY           SKY/WX    TMP DP  RH WIND       PRES   REMARKS
DOWNTOWN L.A.  CLEAR     71  64  78 CALM      29.98R
L.A. AIRPORT   PTCLDY    70  66  87 W10       30.00R
SAN DIEGO      MOCLDY    72  64  76 SW7       30.02R
BURBANK        CLEAR     77  60  55 S6        29.99S
ONTARIO        MOCLDY    81  64  56 W7        30.00R
RIVERSIDE      PTCLDY    81  65  58 W6        29.99S
PALM SPRINGS   MOCLDY    92  64  39 S12       29.94R
EL CENTRO NAS  PTCLDY    96  65  35 NE9       29.88R
IMPERIAL       PTCLDY    95  65  37 N13       29.86R
BLYTHE           N/A     90  68  48 N7        29.91
$$

NVZ020-UTZ003-310500-
SOUTHERN NEVADA-UTAH

CITY           SKY/WX    TMP DP  RH WIND       PRES   REMARKS
LAS VEGAS      NOT AVBL
SALT LAKE CITY PTCLDY    77  36  22 S5        30.20R
$$

NMZ009-TXZ055-310500-
NEW MEXICO-WEST TEXAS

CITY           SKY/WX    TMP DP  RH WIND       PRES   REMARKS
ALBUQUERQUE    MOCLDY    73  58  59 SE3       30.35R
EL PASO        MOCLDY    82  61  48 N10       30.18R
$$


........................KEY........................
SKY/WX - SKY CONDITION/WEATHER
TMP    - TEMPERATURE IN FAHRENHEIT
DP     - DEW POINT IN FAHRENHEIT
RH     - RELATIVE HUMIDITY IN PERCENT
WIND   - DIRECTION AND SPEED IN MILES PER HOUR (MPH)
VRB    - VARIABLE WIND DIRECTION
PRES   - MEAN SEA LEVEL PRESSURE IN INCHES OF MERCURY
         F - FALLING PRESSURE   R - RISING PRESSURE
         S - STEADY PRESSURE
VSB    - VISIBILITY IN MILES
HX     - HEAT INDEX IN FAHRENHEIT
WCI    - WIND CHILL INDEX IN FAHRENHEIT
TC     - TEMPERATURE IN CELSIUS WHICH IS ALSO KNOWN AS
         TEMPERATURE IN CENTIGRADE
AFB    - AIR FORCE BASE
         LUKE AFB IS LUKE AIR FORCE BASE
         DAVIS-MONTHAN IS DAVIS-MONTHAN AIR FORCE BASE
NAS    - NAVAL AIR STATION
         EL CENTRO NAS IS EL CENTRO NAVAL AIR STATION
N/A    - NOT AVAILABLE



USA.gov is the U.S. government's official web portal to all federal, state and local government web resources and services.